Home   Weather   Farsund   Past weeks

Flag for Norway Past Weather in Farsund, Norway — Yesterday and Last 2 Weeks

Now
32 °F

Chilly.


Feels Like: 28 °F
Forecast: 41 / 45 °F
Wind: 3 mph from East

Location: Lista Fyr

Current Time: Jan 17, 2017 at 5:55:58 am

Latest Report: Jan 17, 2017 at 5:00 am


Visibility: N/A

Pressure: 30.49 "Hg

Humidity: 79%

Dew Point: 26 °F

Location of FarsundLocation

Past Weather in Farsund — Graph

°F

Farsund Temperature Yesterday

Maximum temperature yesterday: 36 °F (at 2:00 pm)
Minimum temperature yesterday: 21 °F (at 4:00 am)
Average temperature yesterday: 27 °F

High & Low Weather Summary for the Past Weeks

 TemperatureHumidityPressure
High46 °F (Jan 3, 12:00 pm)98% (Jan 6, 10:00 pm)30.67 "Hg (Jan 6, 10:00 pm)
Low21 °F (Jan 16, 4:00 am)33% (Jan 4, 1:00 pm)28.70 "Hg (Jan 11, 10:00 am)
Average38 °F78%29.82 "Hg
* Reported Jan 2 4:00 am — Jan 17 4:00 am, Farsund, Weather by CustomWeather, © 2017

Note: Actual official high and low records may vary slightly from our data, if they occured in-between our weather recording intervals... More about our weather records

Advertising

Farsund Weather History for the Previous 24 Hours

Scroll right to see more
 ConditionsComfort  
Time TempWeatherWind HumidityBarometerVisibility
4:00 am
Tue, Jan 17
33 °FChilly.2 mph74%30.50 "HgN/A
3:00 am33 °FChilly.2 mph74%30.49 "HgN/A
2:00 am32 °FChilly.3 mph76%30.48 "HgN/A
1:00 am32 °FChilly.3 mph73%30.49 "HgN/A
12:00 am32 °FChilly.5 mph67%30.48 "HgN/A
11:00 pm
Mon, Jan 16
30 °FChilly.6 mph71%30.47 "HgN/A
10:00 pm30 °FChilly.3 mph75%30.48 "HgN/A
9:00 pm30 °FChilly.2 mph74%30.48 "HgN/A
8:00 pm28 °FChilly.2 mph77%30.46 "HgN/A
7:00 pm28 °FPassing clouds.3 mph74%30.45 "Hg19 mi
6:00 pm27 °FChilly.2 mph77%30.44 "HgN/A
5:00 pm30 °FChilly.3 mph68%30.43 "HgN/A
4:00 pm32 °FChilly.2 mph61%30.42 "HgN/A
3:00 pm35 °FChilly.2 mph60%30.42 "HgN/A
2:00 pm36 °FChilly.2 mph58%30.41 "HgN/A
1:00 pm35 °FPassing clouds.3 mph62%30.40 "Hg25 mi
12:00 pm33 °FChilly.2 mph69%30.40 "HgN/A
11:00 am29 °FChilly.3 mph76%30.39 "HgN/A
10:00 am25 °FPassing clouds.3 mph78%30.38 "Hg25 mi
9:00 am23 °FCold.5 mph75%30.37 "HgN/A
8:00 am26 °FChilly.3 mph73%30.34 "HgN/A
7:00 am23 °FPassing clouds.2 mph72%30.33 "Hg25 mi
6:00 am23 °FCold.3 mph72%30.32 "HgN/A
5:00 am23 °FCold.3 mph69%30.30 "HgN/A
Weather by CustomWeather, © 2017

See weather overviewHow to use our weather pages